Toms River, NJ

11:21 AM EDT on September 15, 2019 (GMT -0400)
Miller

Weather History for KMJX - August, 2019

Change the Weather History Date:

Sunday, August 25, 2019

  Actual Average Record
Temperature  
Mean Temperature 64 °F -  
Max Temperature 75 °F 82 °F 94 °F (1969)
Min Temperature 54 °F 58 °F 44 °F (1971)
Growing Degree Days 14 (Base 50)    
Moisture  
Dew Point 61 °F    
Average Humidity 75    
Maximum Humidity 100    
Minimum Humidity 57    
Precipitation  
Precipitation 0.00 in - - ()
Sea Level Pressure  
Sea Level Pressure 30.23 in    
Wind  
Wind Speed 11 mph (NE)    
Max Wind Speed 22 mph    
Max Gust Speed 26 mph    
Visibility 10 miles    
Events      
Averages and records for this station are not official NWS values.
T = Trace of Precipitation, MM = Missing Value Source: NWS Daily Summary

Daily Weather History Graph

Daily Weather History Graph

Search for Another Location

Airport or City:

Astronomy

Aug. 25, 2019 Rise Set
Actual Time 6:18 AM EDT 7:39 PM EDT
Civil Twilight 5:49 AM EDT 8:07 PM EDT
Nautical Twilight 5:16 AM EDT 8:41 PM EDT
Astronomical Twilight 4:40 AM EDT 9:17 PM EDT
Moon 12:51 AM EDT (8/25) 3:57 PM EDT (8/25)
Length of Visible Light 14h 17m
Length of Day
13h 21m
Waning Crescent, 29% of the Moon is Illuminated
Aug 25
Waning Crescent
Aug 30
New
Sep 5
First Quarter
Sep 14
Full
Sep 21
Last Quarter

Hourly Weather History & Observations

Time (EDT) Temp. Dew Point Humidity Pressure Visibility Wind Dir Wind Speed Gust Speed Precip Events Conditions
12:56 AM 54.0 °F - N/A% 30.25 in 10.0 mi NNE 3.5 mph - N/A   Clear
1:56 AM 59.0 °F - N/A% 30.23 in 10.0 mi North 4.6 mph - N/A   Overcast
2:56 AM 63.0 °F - N/A% 30.22 in 10.0 mi NE 6.9 mph - 0.00 in   Overcast
3:56 AM 64.9 °F - N/A% 30.22 in 10.0 mi NE 10.4 mph - N/A   Overcast
4:56 AM 64.9 °F - N/A% 30.22 in 10.0 mi ENE 9.2 mph - N/A   Mostly Cloudy
5:56 AM 64.0 °F - N/A% 30.22 in 10.0 mi NNE 8.1 mph - N/A   Mostly Cloudy
6:56 AM 64.0 °F - N/A% 30.23 in 10.0 mi NE 12.7 mph 18.4 mph N/A   Scattered Clouds
7:18 AM 64.4 °F - N/A% 30.22 in 10.0 mi NE 12.7 mph - N/A   Mostly Cloudy
7:56 AM 66.0 °F - N/A% 30.25 in 10.0 mi NE 15.0 mph - N/A   Mostly Cloudy
8:56 AM 68.0 °F 66.0 °F 93% 30.25 in 10.0 mi NE 19.6 mph 23.0 mph N/A   Overcast
9:56 AM 70.0 °F 63.0 °F 78% 30.26 in 10.0 mi NE 19.6 mph 25.3 mph 0.00 in   Overcast
10:15 AM 71.6 °F 60.8 °F 69% 30.24 in 10.0 mi NE 21.9 mph 26.5 mph N/A   Mostly Cloudy
10:25 AM 71.6 °F 60.8 °F 69% 30.25 in 10.0 mi NE 20.7 mph - N/A   Mostly Cloudy
10:56 AM 73.9 °F 60.1 °F 62% 30.26 in 10.0 mi NE 15.0 mph 21.9 mph N/A   Mostly Cloudy
11:56 AM 73.0 °F 60.1 °F 64% 30.26 in 10.0 mi NE 19.6 mph 24.2 mph N/A   Overcast
12:56 PM 75.0 °F 60.1 °F 60% 30.26 in 10.0 mi NE 15.0 mph - N/A   Overcast
1:56 PM 73.9 °F 57.9 °F 57% 30.24 in 10.0 mi NE 15.0 mph 24.2 mph N/A   Scattered Clouds
2:56 PM 73.9 °F 57.9 °F 57% 30.23 in 10.0 mi ENE 15.0 mph 23.0 mph N/A   Mostly Cloudy
3:56 PM 73.9 °F 60.1 °F 62% 30.22 in 10.0 mi ENE 15.0 mph 20.7 mph N/A   Mostly Cloudy
4:56 PM 73.0 °F 60.1 °F 64% 30.22 in 10.0 mi ENE 16.1 mph 23.0 mph N/A   Scattered Clouds
5:56 PM 70.0 °F 60.1 °F 71% 30.23 in 10.0 mi ENE 10.4 mph 19.6 mph N/A   Mostly Cloudy
6:56 PM 69.1 °F 61.0 °F 75% 30.23 in 10.0 mi ENE 9.2 mph 17.3 mph N/A   Mostly Cloudy
7:12 PM 69.8 °F 60.8 °F 73% 30.22 in 10.0 mi ENE 10.4 mph 19.6 mph N/A   Scattered Clouds
7:21 PM 68.0 °F 60.8 °F 78% 30.22 in 10.0 mi ENE 10.4 mph 17.3 mph N/A   Mostly Cloudy
7:31 PM 68.0 °F 60.8 °F 78% 30.22 in 10.0 mi ENE 15.0 mph 23.0 mph N/A   Mostly Cloudy
7:56 PM 66.9 °F 60.1 °F 79% 30.23 in 10.0 mi ENE 11.5 mph 20.7 mph N/A   Partly Cloudy
8:56 PM 66.9 °F 62.1 °F 84% 30.23 in 10.0 mi NE 15.0 mph - N/A   Clear
9:56 PM 66.0 °F 64.9 °F 96% 30.23 in 10.0 mi ENE 9.2 mph - N/A   Clear
10:56 PM 66.0 °F 66.0 °F 100% 30.23 in 10.0 mi ENE 9.2 mph - N/A   Clear
11:56 PM 64.9 °F 64.9 °F 100% 30.22 in 10.0 mi NE 9.2 mph - N/A   Scattered Clouds